User: anonymous   Login
Location: Congrier
(47.8099°N, 1.1170°W)
Time: 07:28:26
(UTC+00:00)
Language:

NOSS 3-3 (C) - Orbit

View from above orbital plane
View from above orbital plane
View from above satellite
View from above satellite

Ground track
Ground track

The orbit data is extracted from the following two-line orbital elements,

1 28541U 05004C   23151.19127270 0.00000000  00000-0  00000-0 0    03
2 28541  63.4091  38.0191 0457687   0.0773 359.9378 13.40874094    05
Epoch (UTC): 31 May 2023 04:35:25
Eccentricity: 0.0457687
inclination: 63.4091°
perigee height: 763 km
apogee height: 1448 km
right ascension of ascending node: 38.0191°
argument of perigee: 0.0773°
revolutions per day: 13.40874094
mean anomaly at epoch: 359.9378°
orbit number at epoch: 0

The dashed part of the orbit path shows where the satellite is in the earth's shadow,  

DLR